Regional Weather Roundup
Issued by NWS

Home | Current Version | Previous Version | Text Only | Print | Product List | Glossary On
Versions: 1 2 3 4 5 6 7 8 9 10 11 12 13 14 15 16 17 18 19 20 21 22 23 24 25 26 27 28 29 30 31 32 33 34 35 36 37 38 39 40 41 42 43 44 45 46 47 48 49 50
000
ASUS43 KDTX 291101
RWRMI
MICHIGAN HOURLY REGIONAL WEATHER ROUNDUP
NATIONAL WEATHER SERVICE DETROIT/PONTIAC MI
700 AM EDT SAT APR 29 2017

NOTE: "FAIR" INDICATES FEW OR NO CLOUDS BELOW 12,000 FEET WITH NO
SIGNIFICANT WEATHER AND/OR OBSTRUCTION TO VISIBILITY.

MIZ047>049-052>055-059>063-066>070-074>076-081>083-291200-
SOUTHEAST LOWER MICHIGAN

CITY           SKY/WX    TMP DP  RH WIND       PRES   REMARKS
ADRIAN         CLOUDY    54  51  90 E6        30.05R
ALMA           CLOUDY    43  36  76 N8        30.12R
ANN ARBOR      CLOUDY    53  48  83 NW10      30.03R
BAD AXE        CLOUDY    39  32  75 N8        30.14R WCI  34
CARO           CLOUDY    42  34  74 NE5       30.12R
DETROIT CITY   CLOUDY    44  35  70 NE13G21   30.09R
DETROIT        CLOUDY    48  42  80 NE16      30.06R
FLINT          CLOUDY    44  35  70 N12       30.12R
GROSSE ILE     CLOUDY    46  40  81 NE16G24   30.05R
HILLSDALE      CLOUDY    50  45  81 N5        30.05R
HOWELL         CLOUDY    44  37  77 N7        30.08R

CITY           SKY/WX    TMP DP  RH WIND       PRES   REMARKS
JACKSON        CLOUDY    46  39  76 N10       30.06R
LAMBERTVILLE   CLOUDY    54  53  97 CALM      30.03R FOG
LANSING        CLOUDY    46  39  76 NE8       30.12R
LAPEER         CLOUDY    42  34  72 NE8       30.10R
MASON          CLOUDY    45  38  77 N14       30.10R
MONROE         CLOUDY    55  52  90 CALM      30.03R
MT. CLEMENS    CLOUDY    42  34  72 N13       30.07R
PONTIAC        CLOUDY    42  35  76 NE8       30.06R
PORT HOPE        N/A     41  35  79 N10       30.12R
PORT HURON     CLOUDY    41  30  65 N12G17    30.09R
TRI CITIES     CLOUDY    44  38  79 N8        30.13R
MIDLAND        CLOUDY    43  32  64 N7        30.12R
TROY           CLOUDY    45  33  64 N6G17     30.10R
SAGINAW HB     CLOUDY    45  34  65 N10       30.12R
$$
MIZ043>046-050>051-056>058-064>065-071>073-077>080-291200-
SOUTHWEST LOWER MICHIGAN

CITY           SKY/WX    TMP DP  RH WIND       PRES   REMARKS
BATTLE CREEK   MOCLDY    47  41  80 N13       30.07R
BENTON HARBOR  CLOUDY    47  41  80 NE6       30.10R
BIG RAPIDS     CLOUDY    39  33  81 N5        30.13R
COLDWATER      CLOUDY    49  44  82 NE8       30.07R
FREMONT        CLOUDY    43  33  67 N9        30.13R
HOLLAND        CLOUDY    46  38  73 NE10G16   30.10R
GRAND RAPIDS   CLOUDY    45  39  79 NE10G20   30.10R
IONIA          CLOUDY    44  37  77 NE13      30.11R
KALAMAZOO      CLOUDY    48  39  71 N10G17    30.07R
LUDINGTON      CLOUDY    38  33  83 N5        30.17R WCI  34
MARSHALL       MOCLDY    47  41  81 N5        30.05R
MOUNT PLEASANT CLOUDY    42  33  71 NE5       30.11S
MUSKEGON       CLOUDY    45  33  63 N9        30.12R
SOUTH HAVEN    MOCLDY    45  41  87 NE6       30.10R
$$
MIZ016>042-291200-
NORTHERN LOWER MICHIGAN

CITY           SKY/WX    TMP DP  RH WIND       PRES   REMARKS
ALPENA         CLOUDY    37  27  67 NW10      30.16R WCI  30
BEAVER ISLAND  MOCLDY    32  28  84 S5        30.28R WCI  27
BELLAIRE       CLEAR     34  26  71 CALM      30.22R
CADILLAC       CLOUDY    33  30  86 N6        30.16R WCI  28
CHARLEVOIX     CLEAR     35  28  74 N6        30.25R WCI  30
FRANKFORT      CLEAR     36  26  66 N3        30.23R
GAYLORD        CLEAR     34  22  61 VRB6      30.16R WCI  29
GRAYLING       CLOUDY    34  28  79 NW6       30.17R WCI  29
HARBOR SPRINGS PTCLDY    32  26  80 CALM      30.21R
HOUGHTON LAKE  CLOUDY    37  28  70 N8        30.15R WCI  31
MANISTEE       CLEAR     37  30  75 N6        30.20R WCI  32
OSCODA         CLOUDY    38  36  92 NW6       30.13R WCI  33
ROGERS CITY    CLOUDY    35  26  68 NW8       30.18F WCI  28
TRAVERSE CITY  PTCLDY    37  24  59 N9        30.21R WCI  30
$$
MIZ007>008-015-291200-
EASTERN UPPER MICHIGAN

CITY           SKY/WX    TMP DP  RH WIND       PRES   REMARKS
KINROSS        CLOUDY    35  26  69 NW12G18   30.17R WCI  27
MACKINAC ISLAN CLOUDY    35  27  71 SW7       30.20R WCI  29
NEWBERRY       MOCLDY    33  27  79 NW7       30.16R WCI  27
S. S. MARIE    CLOUDY    37  26  64 NW14      30.13R WCI  28
MUNISING         N/A     37  29  72 N21       30.17R WCI  26
$$
MIZ004>006-011>014-085-291200-
CENTRAL UPPER MICHIGAN

CITY           SKY/WX    TMP DP  RH WIND       PRES   REMARKS
MANISTIQUE     MOCLDY    29  28  97 CALM      30.21R
ESCANABA       CLEAR     27  25  92 S9        30.28R WCI  18
MENOMINEE      CLEAR     31  27  85 NW3       30.27R
SAWYER-GWINN   MOCLDY    32  25  74 N15G22    30.18R WCI  22
$$
MIZ001>003-009>011-084-291200-
WESTERN UPPER MICHIGAN

CITY           SKY/WX    TMP DP  RH WIND       PRES   REMARKS
IRON MOUNTAIN  CLEAR     27  22  81 S5        30.21R WCI  22
HOUGHTON       CLEAR     31  22  69 N6        30.19R WCI  25
COPPER HARBOR    N/A     36  27  69 NE16      30.19F WCI  26
IRONWOOD       CLEAR     23  22  96 CALM      30.22R
$$

ABBREVIATIONS USED IN REMARKS
   TC - TEMPERATURE IN CELSIUS
  WCI - WIND CHILL INDEX
   HX - HEAT INDEX
  VSB - VISIBILITY





USA.gov is the U.S. government's official web portal to all federal, state and local government web resources and services.